Tracking 30995 objects as of 5-Jul-2025
HD Live streaming from Space Station
objects crossing your sky now

DELTA 1 DEB

Track DELTA 1 DEB now!
10-day predictions


NORAD ID: 7053
Int'l Code: 1973-086AV
Perigee: 1,442.3 km
Apogee: 1,513.4 km
Inclination: 101.8 °
Period: 115.3 minutes
Semi major axis: 7848 km
RCS: 0.1024 m2 (medium)
Launch date: November 6, 1973
Source: United States (US)
Launch site: AIR FORCE WESTERN TEST RANGE (AFWTR)

Note: This is SATELLITE DEBRIS
Your satellite tracking list
Your tracking list is empty




NASA's NSSDC Master Catalog

Two Line Element Set (TLE):
1 07053U 73086AV  25185.97085442  .00000134  00000-0  11944-2 0  9998
2 07053 101.7752 262.4697 0045281 244.9848 301.2739 12.48519641350908
Source of the keplerian elements: AFSPC